www.pogodaiklimat.ru

Погода и климат >> Архив погоды >> Россия >> Камчатский край >> Мыс Лопатка


ПОГОДА на Мысе Лопатка

  • Прогноз погоды на Мысе Лопатка
  • Монитор погоды на Мысе Лопатка

АРХИВ ПОГОДЫ на Мысе Лопатка

Время (UTC), дата Ветер
(напр.,м/с)
 
Видим.   Явления Облачность Т
(С)
Тd
(С)
f
(%)
Тe
(С)
Тes
(С)
Комфортность P
(гПа)
Po
(гПа)
Тmin
(С)
Tmax
(С)
R
(мм)
R24
(мм)
S
(см)
06 19.06 Ю 6
{12}
4000 м ливневой дождь {туман} 10/10 300 м
[Cb cap]
+5.5 +5.1 97 0 0 1009.6 1003.4
09 19.06 Ю 10-14
{15}
4000 м ливневой дождь 10/10 300 м
[Cb cap]
+5.7 +5.3 97 -1 -1 1010.1 1003.9 +6.0 3
12 19.06 ЮЗ 8-12
{14}
4000 м дымка {ливн. осадки} 10/10 300 м
[St]
+5.2 +4.9 98 -1 -1 1011.9 1005.7
15 19.06 З 4
{14}
4000 м дымка 10/10 300 м
[St]
+5.0 +4.8 99 +1 +1 1012.9 1006.7
18 19.06 ЮЗ 6
{10}
4000 м 10/10 300 м
[St]
+5.1 +4.9 99 -0 -0 1013.9 1007.7
21 19.06 Ю 8-11
{12}
500 м туман ?/? +5.6 +5.4 99 -0 -0 1014.6 1008.4 +4.9 0.0
00 20.06 ЮЗ 6
{12}
500 м туман ?/? +6.1 +5.9 99 +1 +1 1015.9 1009.7
03 20.06 Ю 4 500 м туман ?/? +6.6 +6.3 98 +3 +3 1016.3 1010.1
06 20.06 Ю 6
{10}
500 м туман ?/? +6.4 +6.2 99 +2 +2 1016.6 1010.4
09 20.06 Ю 4
{11}
200 м туман ?/? +6.0 +5.8 99 +2 +2 1017.5 1011.3 +7.0
12 20.06 Ю 4 200 м туман ?/? +5.3 +5.1 99 +1 +1 1018.3 1012.0
15 20.06 ЮЗ 5 2000 м слаб. морось {туман} 10/10 300 м
[St]
+5.4 +5.3 99 +1 +1 1018.4 1012.1
18 20.06 Ю 5 2000 м слаб. ливневой дождь {морось} 10/10 300 м
[Cb cap]
+5.6 +5.4 99 +1 +1 1018.5 1012.3
21 20.06 ЮВ 6 2000 м ливневой дождь 10/10 300 м
[Cb cap]
+5.8 +5.6 99 +1 +1 1019.1 1012.8 +5.2 10
00 21.06 ЮВ 5 200 м слаб. ливневой дождь {туман} туман ?/? +6.0 +5.8 99 +1 +1 1019.2 1013.0
03 21.06 ЮВ 4 200 м туман {ливн. осадки} ?/? +6.5 +6.3 99 +3 +3 1018.7 1012.5
06 21.06 Ю 2 4000 м дымка {ливн. осадки, туман} 9/8 300 м
[St As trans Ci fib]
+6.3 +6.1 99 +4 +5 1018.1 1011.9
09 21.06 Ю 2 500 м туман ?/? +6.0 +5.8 99 +3 +3 1018.5 1012.3 +6.9 2
12 21.06 ЮЗ 1 500 м туман ?/? +5.7 +5.6 99 +4 +4 1019.1 1012.9
15 21.06 С 1 500 м туман ?/? +5.3 +5.1 99 +4 +4 1018.7 1012.4
18 21.06 С 2 500 м туман ?/? +5.1 +4.9 99 +2 +2 1018.9 1012.6
21 21.06 С 3 500 м туман ?/? +5.8 +5.6 99 +2 +2 1019.3 1013.1 +5.0
00 22.06 СЗ 2 200 м туман ?/? +6.4 +6.2 99 +4 +4 1019.5 1013.3
03 22.06 СЗ 4 200 м туман ?/? +5.9 +5.7 99 +2 +2 1019.5 1013.3
06 22.06 СЗ 7 4000 м дымка {туман} 10/10 300 м
[St]
+5.6 +5.4 99 0 0 1018.8 1012.6
09 22.06 СЗ 6 20 км 8/8 600 м
[Sc]
+5.0 +4.9 99 -0 -0 1018.8 1012.6 +6.8
12 22.06 СЗ 6 500 м туман ?/? +4.6 +4.5 99 -1 -1 1019.9 1013.6
15 22.06 СЗ 6 10 км {туман} н/о +4.7 +4.6 99 -1 -1 1019.7 1013.4
18 22.06 10 км {туман} н/о +4.8 +4.6 99 -1 -1 1019.6 1013.3
21 22.06 СЗ 7 10 км 10/10 300 м
[Sc]
+5.3 +5.1 99 -0 -0 1020.4 1014.1 +4.4
00 23.06 СЗ 7 50 км 6/3 600 м
[Sc Ac trans]
+7.0 +5.6 91 +2 +4 1020.3 1014.1
03 23.06 СЗ 7 50 км в посл. час морось 4/3 600 м
[Sc Ac trans]
+7.6 +5.8 88 +3 +6 1019.9 1013.7
06 23.06 СЗ 6 4000 м дымка 10/10 300 м
[St]
+5.9 +5.2 95 +1 +1 1020.2 1013.9
09 23.06 СЗ 6 200 м туман ?/? +4.1 +4.0 99 -2 -2 1020.2 1013.9 +7.8
12 23.06 СЗ 8 200 м туман ?/? +3.8 +3.7 99 -3 -3 1020.2 1013.9
15 23.06 СЗ 5 200 м туман ?/? +3.7 +3.6 99 -2 -2 1020.2 1014.0
18 23.06 штиль 0 200 м туман ?/? +3.7 +3.6 99 +2 +2 1020.2 1013.9
21 23.06 ЮВ 4 200 м туман ?/? +5.2 +5.1 99 +1 +1 1020.5 1014.2 +3.7
00 24.06 ЮВ 7
{10}
2000 м дымка {туман} 10/10 200 м
[St]
+6.3 +6.1 99 +1 +1 1020.3 1014.1
03 24.06 ЮВ 9-11
{12}
20 км 10/10 600 м
[Sc]
+7.4 +6.1 91 +2 +2 1019.2 1013.0
06 24.06 ЮВ 7
{11}
4000 м дымка 10/10 300 м
[St]
+6.5 +6.0 97 +1 +1 1019.5 1013.3
09 24.06 ЮВ 7 200 м слаб. морось {туман} туман ?/? +5.6 +5.3 98 0 0 1019.4 1013.2 +7.8 0.0
12 24.06 ЮВ 3
{10}
10 км слаб. ливневой дождь {морось} 10/10 300 м
[Cb cap]
+5.7 +5.5 99 +2 +2 1020.5 1014.2
15 24.06 ЮВ 3 20 км {ливн. осадки} 10/10 300 м
[St]
+5.7 +5.5 99 +2 +2 1019.3 1013.1
18 24.06 ЮВ 3 10 км {ливн. осадки} 10/10 300 м
[Sc]
+6.0 +5.7 98 +3 +3 1019.3 1013.1
21 24.06 Ю 3 10 км 10/10 300 м
[Sc]
+6.6 +6.3 98 +3 +3 1019.5 1013.3 +5.5 1
00 25.06 Ю 3 20 км 9/6 600 м
[Sc Ac trans]
+7.5 +6.5 93 +5 +7 1018.7 1012.5
03 25.06 Ю 3 20 км 9/8 300 м
[St Ac trans]
+7.6 +6.3 91 +5 +7 1018.0 1011.8
06 25.06 Ю 3 20 км 9/8 300 м
[Sc diur, vesp Ac trans]
+7.5 +6.4 93 +5 +5 1017.1 1010.9
09 25.06 ЮЗ 3 20 км 10/10 300 м
[St]
+7.3 +6.6 95 +4 +4 1016.4 1010.3 +8.0
12 25.06 ЮЗ 4 20 км 10/10 300 м
[St]
+6.6 +6.2 97 +3 +3 1016.2 1010.0
15 25.06 Ю 3 20 км слаб. ливневой дождь 10/10 300 м
[Cb cap]
+6.6 +6.4 99 +3 +3 1014.6 1008.5
18 25.06 Ю 4 2000 м ливневой дождь 10/10 300 м
[Cb cap]
+6.5 +6.3 99 +3 +3 1012.8 1006.6
21 25.06 Ю 5 500 м ливневой дождь {туман} туман ?/? +6.2 +6.0 99 +2 +2 1011.0 1004.8 +6.2 8
00 26.06 Ю 7 2000 м ливневой дождь {туман} 10/10 300 м
[Cb cap]
+6.3 +6.1 99 +1 +1 1008.0 1001.9 +6.2
03 26.06 Ю 9-12
{12}
2000 м ливневой дождь 10/10 300 м
[Cb cap]
+6.4 +6.2 99 +1 +1 1003.9 997.7

 

Местоположение метеостанции Мыс Лопатка (Камчатский край, Россия): широта 50.87 долгота 156.60 высота над уровнем моря 50 м.

В архиве по умолчанию представлена погода на Мысе Лопатка за последнюю неделю. Архивные данные за месяц целиком и за предыдущие месяцы, начиная с января 2011 года, Вы можете получить, выбрав интересующий диапазон дат из раскрывающегося списка и нажав кнопку "Ввод!".


*Определитесь, кто Вы:
робот инопланетянин человек

Внимание! Время в таблицах - всемирное. Для получения местного времени необходимо прибавить поправку, которая равна 12 ч.

Смотрите также архив погоды в соседних городах и на ближайших метеорологических станциях:

Погода в Северо-Курильске (Сахалинская область, Россия) (41 км)
Погода в Озерной (Камчатский край, Россия) (69 км)
Погода в Водопадной (Камчатский край, Россия) (144 км)
Погода в Большерецке (Камчатский край, Россия) (219 км)
Погода в Начиках (Камчатский край, Россия) (261 км)
Погода в Петропавловск-Камчатском (Камчатский край, Россия) (261 км)
Погода в Петропавловском Маяке (Камчатский край, Россия) (266 км)
Погода в Сосновке (Камчатский край, Россия) (272 км)
Погода в Петропавловск-Камч. 2 (Камчатский край, Россия) (278 км)
Погода в Пущино (Камчатский край, Россия) (380 км)

Пояснения к столбцам:

Ветер - указаны скорость ветра в м/с - средняя за 10 мин, порывы в срок и между сроками (в фигурных скобках) и направление, откуда дует ветер: С - северный, СВ - северо-восточный, В - восточный, ЮВ - юго-восточный, Ю - южный, ЮЗ - юго-западный, З - западный, СЗ - северо-западный.
Видимость - горизонтальная дальность видимости в метрах или километрах. При видимости от 1 до 10 км при отсутствии осадков обычно наблюдается дымка, при ухудшении видимости до 1 км и менее - туман. В сухую погоду видимость может ухудшаться дымом, пылью или мглою.
Явления - указаны атмосферные явления, наблюдавшиеся в срок или в последний час перед сроком; фигурными скобками обозначены явления, наблюдавшиеся между сроками (за 1-3 часа до срока); квадратными скобками обозначены град или гололедные отложения с указанием их диаметра в мм.
Облачность - указаны через наклонную черту общая и нижняя облачность в баллах и высота нижней границы облаков в метрах; квадратными скобками обозначены формы облаков: Ci - перистые, Cs - перисто-слоистые, Cc - перисто-кучевые, Ac - высококучевые, As - высокослоистые, Sc - слоисто-кучевые, Ns - слоисто-дождевые, Cu - кучевые, Cb - кучево-дождевые. Подробнее классификацию облаков см. в Атласе облаков (PDF).
T - Температура воздуха - температура, измеренная на высоте 2 м над землей.
Td - Температура точки росы - температура, при понижении до которой содержащийся в воздухе водяной пар достигнет насыщения.
f - Относительная влажность воздуха - влажноcть воздуха, измеренная на высоте 2 м над землей.
Te - Эффективная температура - температура, которую ощущает одетый по сезону человек в тени. Характеристика душности погоды. При расчете учитывается влияние влажности воздуха и скорости ветра на теплоощущения человека.
Tes - Эффективная температура на солнце - температура, которую ощущает человек, с поправкой на солнечный нагрев. Характеристика знойности погоды. Зависит от высоты солнца над горизонтом, облачности и скорости ветра. Ночью, в пасмурную погоду, а также при ветре 12 м/с и более поправка равна нулю.
P - Атмосферное давление - приведенное к уровню моря атмосферное давление.
Po - Атмосферное давление - измеренное на уровне метеостанции атмосферное давление.
Tmin - Минимальная температура - минимум температуры воздуха на высоте 2 м над землей.
Tmax - Максимальная температура - максимум температуры воздуха на высоте 2 м над землей.
R - Количество осадков - Количество выпавших осадков за период времени, мм. При наведении курсора мыши на число - период времени, за который выпало указанное количество осадков.
R24 - Количество осадков - Количество выпавших осадков за 24 часа, мм.
S - Снежный покров - Высота снежного покрова, см. При наведении курсора мыши на число - состояние снежного покрова и степень покрытия местности в баллах.